This is the latest recevied weather packets stored in our database for station/object K4CRS-13. If no packets are shown the sender has not sent any weather packets the latest 10 day(s).
| Time | Temp. | Humidity | Pressure | Rain* | Wind** | Luminosity | Snow |
|---|---|---|---|---|---|---|---|
| 1787789137 | 21.67° C | 99% | 1050.8 hPa | 0 mm | - | 11 W/m² | - |
| 1787788836 | 21.67° C | 99% | 1050.7 hPa | 0 mm | - | 15 W/m² | - |
| 1787788530 | 21.67° C | 99% | 1050.7 hPa | 0 mm | - | 18 W/m² | - |
| 1787788224 | 21.67° C | 99% | 1050.8 hPa | 0 mm | - | 20 W/m² | - |
| 1787787920 | 21.67° C | 99% | 1050.8 hPa | 0 mm | - | 25 W/m² | - |
| 1787787614 | 22.22° C | 99% | 1050.6 hPa | 0 mm | - | 41 W/m² | - |
| 1787787308 | 22.22° C | 99% | 1050.9 hPa | 0 mm | - | 52 W/m² | - |
| 1787787008 | 22.22° C | 99% | 1050.4 hPa | 0 mm | - | 59 W/m² | - |
| 1787786702 | 21.67° C | 99% | 1050.5 hPa | 0 mm | - | 61 W/m² | - |
| 1787786402 | 22.22° C | 99% | 1050.5 hPa | 0 mm | - | 66 W/m² | - |
| 1787786098 | 22.22° C | 99% | 1050 hPa | 0 mm | - | 72 W/m² | - |
| 1787785793 | 22.22° C | 99% | 1050.3 hPa | 0 mm | - | 76 W/m² | - |
| 1787785489 | 21.67° C | 99% | 1050 hPa | 0 mm | - | 85 W/m² | - |
| 1787785188 | 21.67° C | 99% | 1049.7 hPa | 0 mm | - | 90 W/m² | - |
| 1787784884 | 21.67° C | 99% | 1049.7 hPa | 0 mm | - | 97 W/m² | - |
| 1787784582 | 21.67° C | 99% | 1049.5 hPa | 0 mm | - | 103 W/m² | - |
| 1787784281 | 22.22° C | 99% | 1049.6 hPa | 0 mm | - | 109 W/m² | - |
| 1787783977 | 22.22° C | 99% | 1049.5 hPa | 0 mm | - | 109 W/m² | - |
| 1787783673 | 21.67° C | 99% | 1050.1 hPa | 0 mm | - | 106 W/m² | - |
| 1787783372 | 21.67° C | 99% | 1050 hPa | 0 mm | - | 103 W/m² | - |
| 1787783068 | 21.67° C | 99% | 1050.1 hPa | 0 mm | - | 99 W/m² | - |
| 1787782768 | 21.67° C | 99% | 1050.2 hPa | 0 mm | - | 94 W/m² | - |
| 1787782464 | 21.67° C | 99% | 1050.1 hPa | 0 mm | - | 90 W/m² | - |
| 1787782164 | 21.67° C | 99% | 1050.2 hPa | 0 mm | - | 89 W/m² | - |
| 1787781859 | 21.67° C | 99% | 1050.2 hPa | 0 mm | - | 87 W/m² | - |
* Rain latest hour (hover to see other rain measurements)
** Current wind speed in m/s (hover to see current wind gust speed)